Regional Weather Roundup
Issued by NWS Albany, NY

Home | Current Version | Previous Version | Graphics & Text | Print | Product List | Glossary Off
Versions: 1 2 3 4 5 6 7 8 9 10 11 12 13 14 15 16 17 18 19 20 21 22 23 24 25 26 27 28 29 30 31 32 33 34 35 36 37 38 39 40 41 42 43 44 45 46 47 48 49 50

540
ASUS41 KALY 242110
RWRALY

NEW YORK STATE HOURLY WEATHER ROUNDUP
NATIONAL WEATHER SERVICE ALBANY NY
500 PM EDT SAT SEP 24 2016

NOTE: "FAIR" INDICATES FEW OR NO CLOUDS BELOW 12,000 FEET WITH NO
SIGNIFICANT WEATHER AND/OR NO OBSTRUCTIONS TO VISIBILITY.

NYZ032-033-038>043-046>054-057>066-NYZ062>081-082-084-242200-
EAST


CITY           SKY/WX    TMP DP  RH WIND       PRES   REMARKS
ALBANY         MOSUNNY   66  41  40 N7        30.10F
GLENS FALLS    PTSUNNY   65  36  34 NW12G21   30.10F
POUGHKEEPSIE   MOSUNNY   68  39  34 N8        30.08S
NEWBURGH       MOSUNNY   68  45  42 NE12      30.09F
MONTGOMERY     MOSUNNY   70  44  39 NE8       30.08S
WHITE PLAINS   MOSUNNY   68  40  35 N10G17    30.08S
ISLIP          MOSUNNY   69  45  41 N6        30.07S
NEW YORK CITY  MOSUNNY   71  42  35 N9        30.07S
CENTRAL PARK   SUNNY     69  42  37 NE8       30.10S
$$

NYZ005>009-017-018-044>046-055-056-242200-
CENTRAL


CITY           SKY/WX    TMP DP  RH WIND       PRES   REMARKS
FULTON         SUNNY     62  40  44 N13       30.19S
SYRACUSE       MOSUNNY   62  39  42 NW14G20   30.17F
ROME           SUNNY     63  41  44 N9        30.15F
ELMIRA         PTSUNNY   65  44  46 N10       30.16S
BINGHAMTON     SUNNY     60  38  43 N15       30.15S
MONTICELLO     SUNNY     63  41  45 N14       30.13S
$$

NYZ026>034-041>043-087-242200-
NORTH


CITY           SKY/WX    TMP DP  RH WIND       PRES   REMARKS
WATERTOWN      MOSUNNY   63  35  35 NW13      30.18F
FORT DRUM      NOT AVBL
OGDENSBURG     FAIR      64  38  38 NW10      30.17S
MASSENA        MOSUNNY   60  39  45 NW7       30.16S
SARANAC LAKE   PTSUNNY   55  35  47 VRB7      30.14S
PLATTSBURGH    MOSUNNY   60  37  42 NW8       30.12R
$$

NYZ001>004-010>016-019>021-085-242200-
WEST


CITY           SKY/WX    TMP DP  RH WIND       PRES   REMARKS
NIAGARA FALLS  MOSUNNY   65  37  35 NE10      30.22S
BUFFALO        MOSUNNY   64  40  41 N8        30.21S
DUNKIRK        SUNNY     64  46  52 N9        30.21F
JAMESTOWN      MOSUNNY   61  45  55 N7        30.21R
WELLSVILLE     SUNNY     61  42  49 N8        30.21S
ROCHESTER      MOSUNNY   63  39  41 N7        30.21F
PENN YAN       SUNNY     65  42  43 N10       30.19S
$$

             KEY
       WCI = WIND CHILL INDEX
       VSB = VISIBILITY
       HX  = HEAT INDEX
$$




USA.gov is the U.S. government's official web portal to all federal, state and local government web resources and services.